M I D A S
Marine Information and Data Acquisition System
Tripno 312 of the Zeeleeuw from 2002-08-28 07:07:12 to 2002-08-28 10:53:29
Back to CruiseResearch ActivitiesStationsMapUnderway DataData graphs

EquipmentUnitsComment
TimeDGPSUTC
LatitudeDGPSDM.mWGS84
LongitudeDGPSDM.mWGS84
HeadingGyrodeg 
SOGDGPSknotsSpeed over ground
COGDGPSdegCourse over ground
DepthEcho soundermeters200 kHz
Missing or incorrect values are displayed as -999
Navigation data collected by the RV Zeeleeuw from 2002-08-28 07:07:12 to 2002-08-28 10:53:29
                                                                                    Next 1000 lines
Time Latitude Longitude Heading SOG COG Depth
2002-08-28 07:07:21 51°14.576 2°54.814 342.8 11.7 334.5 9.7
2002-08-28 07:07:26 51°14.591 2°54.802 342 11.9 334.1 9.7
2002-08-28 07:07:30 51°14.603 2°54.793 342.5 12.1 333.7 9.7
2002-08-28 07:07:36 51°14.621 2°54.779 342.2 12.1 334 9.7
2002-08-28 07:07:41 51°14.636 2°54.767 341.8 12.2 334.2 9.6
2002-08-28 07:07:46 51°14.652 2°54.756 342.3 12.3 334.5 9.7
2002-08-28 07:07:50 51°14.664 2°54.746 341.8 12.4 334.5 9.7
2002-08-28 07:07:56 51°14.683 2°54.732 341.3 12.4 334.4 9.7
2002-08-28 07:08:01 51°14.699 2°54.72 341.7 12.5 334.3 9.6
2002-08-28 07:08:06 51°14.714 2°54.707 341.5 12.5 334 9.7
2002-08-28 07:08:10 51°14.726 2°54.697 341.2 12.5 333.6 9.8
2002-08-28 07:08:16 51°14.745 2°54.682 341 12.6 333.2 9.6
2002-08-28 07:08:21 51°14.76 2°54.669 341 12.6 333.3 9.5
2002-08-28 07:08:26 51°14.776 2°54.657 341.2 12.6 333.8 9.5
2002-08-28 07:08:30 51°14.788 2°54.648 341.3 12.6 333.9 9.5
2002-08-28 07:08:36 51°14.807 2°54.633 340.8 12.6 334.2 9.5
2002-08-28 07:08:41 51°14.823 2°54.62 340.8 12.6 333.9 9.5
2002-08-28 07:08:46 51°14.838 2°54.608 340.2 12.6 333.3 9.5
2002-08-28 07:08:50 51°14.851 2°54.598 340 12.6 333 9.5
2002-08-28 07:08:56 51°14.87 2°54.582 339.2 12.7 332.7 9.4
2002-08-28 07:09:01 51°14.885 2°54.569 339.5 12.6 332.9 9.4
2002-08-28 07:09:06 51°14.9 2°54.556 339.2 12.7 332.6 9.3
2002-08-28 07:09:11 51°14.916 2°54.543 339 12.7 332.4 9.2
2002-08-28 07:09:15 51°14.928 2°54.532 339 12.7 332.4 9.2
2002-08-28 07:09:21 51°14.947 2°54.516 339 12.7 332.3 9
2002-08-28 07:09:26 51°14.963 2°54.503 338.2 12.7 331.8 8.8
2002-08-28 07:09:31 51°14.978 2°54.49 338.7 12.7 332.1 8.8
2002-08-28 07:09:36 51°14.994 2°54.477 338.8 12.7 332.3 8.6
2002-08-28 07:09:41 51°15.009 2°54.464 339.2 12.7 332.4 8.6
2002-08-28 07:09:46 51°15.025 2°54.452 339.2 12.6 332.7 8.4
2002-08-28 07:09:51 51°15.04 2°54.439 339.5 12.6 332.6 8.6
2002-08-28 07:09:56 51°15.056 2°54.426 339.3 12.5 333.1 8.3
2002-08-28 07:10:01 51°15.071 2°54.414 340.2 12.5 333.2 8.6
2002-08-28 07:10:06 51°15.087 2°54.402 340.3 12.6 333.7 8.6
2002-08-28 07:10:10 51°15.1 2°54.392 340.2 12.6 333.9 8.7
2002-08-28 07:10:16 51°15.119 2°54.377 340.2 12.6 333.6 8.8
2002-08-28 07:10:21 51°15.134 2°54.364 339.5 12.6 333.3 8.8
2002-08-28 07:10:26 51°15.15 2°54.351 339.7 12.7 332.9 8.8
2002-08-28 07:10:30 51°15.163 2°54.342 339.8 12.7 333.4 8.9
2002-08-28 07:10:36 51°15.182 2°54.326 340 12.7 333.2 8.9
2002-08-28 07:10:41 51°15.197 2°54.313 339.8 12.7 333.2 9
2002-08-28 07:10:46 51°15.213 2°54.301 339.8 12.8 333.2 9.1
2002-08-28 07:10:51 51°15.229 2°54.288 339.7 12.8 333 9.1
2002-08-28 07:10:56 51°15.245 2°54.275 340 12.8 332.4 9.1
2002-08-28 07:11:01 51°15.26 2°54.263 339.5 12.8 332.7 9.1
2002-08-28 07:11:06 51°15.276 2°54.25 340.2 12.8 333.2 9.2
2002-08-28 07:11:11 51°15.292 2°54.238 340.5 12.8 333.7 9.3
2002-08-28 07:11:16 51°15.308 2°54.226 340.5 12.8 333.8 9.3
2002-08-28 07:11:21 51°15.324 2°54.213 340.5 12.8 333.9 9.5
2002-08-28 07:11:26 51°15.34 2°54.201 340.5 12.8 333.9 9.5
2002-08-28 07:11:30 51°15.353 2°54.191 340 12.8 333.8 9.5
2002-08-28 07:11:36 51°15.372 2°54.176 340 12.9 333.9 9.6
2002-08-28 07:11:41 51°15.389 2°54.163 341 12.9 334.1 9.6
2002-08-28 07:11:46 51°15.405 2°54.151 340.5 12.9 334 9.7
2002-08-28 07:11:50 51°15.417 2°54.14 339.3 12.9 333 9.8
2002-08-28 07:11:56 51°15.437 2°54.125 339.8 12.9 332.7 9.9
2002-08-28 07:12:01 51°15.452 2°54.111 338.7 12.9 332.1 9.9
2002-08-28 07:12:06 51°15.468 2°54.097 338.7 12.9 331.9 10
2002-08-28 07:12:10 51°15.481 2°54.086 337.8 12.9 331.3 10.1
2002-08-28 07:12:16 51°15.5 2°54.07 338.2 12.9 331.2 10.1
2002-08-28 07:12:21 51°15.516 2°54.056 337.8 12.9 331.2 10.2
2002-08-28 07:12:26 51°15.531 2°54.042 337.7 12.9 331 10.3
2002-08-28 07:12:30 51°15.543 2°54.031 337.3 12.9 330.4 10.3
2002-08-28 07:12:36 51°15.562 2°54.015 337.8 12.8 330.6 10.4
2002-08-28 07:12:41 51°15.578 2°54 338.2 12.9 330.8 10.5
2002-08-28 07:12:46 51°15.593 2°53.987 337.7 12.9 331 10.5
2002-08-28 07:12:51 51°15.609 2°53.972 338.3 12.9 330.7 10.5
2002-08-28 07:12:56 51°15.625 2°53.959 337.7 12.9 331.1 10.6
2002-08-28 07:13:01 51°15.641 2°53.945 338.2 12.9 331 10.7
2002-08-28 07:13:06 51°15.657 2°53.931 337.8 13 330.9 10.8
2002-08-28 07:13:11 51°15.672 2°53.917 337.7 13 330.7 10.8
2002-08-28 07:13:16 51°15.687 2°53.903 337.5 12.9 330.3 11
2002-08-28 07:13:21 51°15.703 2°53.889 337.3 12.9 329.9 11
2002-08-28 07:13:26 51°15.719 2°53.875 337.3 12.8 330.3 11.1
2002-08-28 07:13:31 51°15.734 2°53.861 337.8 12.9 330.5 11.1
2002-08-28 07:13:36 51°15.75 2°53.847 337.3 12.9 330.4 11.1
2002-08-28 07:13:41 51°15.765 2°53.832 338 12.9 330.3 11.2
2002-08-28 07:13:46 51°15.78 2°53.818 337.5 12.9 330 11.3
2002-08-28 07:13:51 51°15.796 2°53.804 336.8 12.9 329.7 11.3
2002-08-28 07:13:56 51°15.811 2°53.789 337.2 12.9 329.4 11.4
2002-08-28 07:14:01 51°15.826 2°53.775 337.3 12.9 329.7 11.4
2002-08-28 07:14:06 51°15.842 2°53.76 337.3 12.9 329.9 11.4
2002-08-28 07:14:10 51°15.855 2°53.749 338.2 12.9 329.8 11.5
2002-08-28 07:14:16 51°15.873 2°53.732 337.7 12.9 329.9 11.5
2002-08-28 07:14:21 51°15.889 2°53.718 337.8 12.9 330.2 11.6
2002-08-28 07:14:26 51°15.905 2°53.704 338.2 12.9 330.7 11.7
2002-08-28 07:14:29 51°15.914 2°53.696 338.2 12.9 331.1 11.7
2002-08-28 07:14:36 51°15.936 2°53.677 338.5 12.8 331.7 11.7
2002-08-28 07:14:41 51°15.951 2°53.663 338.7 12.8 331.7 11.8
2002-08-28 07:14:46 51°15.967 2°53.649 338 12.8 331.6 11.8
2002-08-28 07:14:50 51°15.979 2°53.639 338.3 12.8 331.1 11.9
2002-08-28 07:14:56 51°15.998 2°53.623 338.3 12.8 331 12
2002-08-28 07:15:01 51°16.013 2°53.609 338.2 12.8 331.3 11.9
2002-08-28 07:15:06 51°16.029 2°53.595 338.5 12.8 331.7 12
2002-08-28 07:15:10 51°16.041 2°53.585 338.3 12.9 332.2 12
2002-08-28 07:15:16 51°16.061 2°53.57 338.5 12.9 332.7 12.1
2002-08-28 07:15:21 51°16.076 2°53.556 338.3 12.9 332.4 12.1
2002-08-28 07:15:26 51°16.092 2°53.543 338.3 13 332.3 12.1
2002-08-28 07:15:31 51°16.108 2°53.529 338.3 13 331.8 12.1
2002-08-28 07:15:36 51°16.124 2°53.515 338.3 12.9 331.9 12.1
2002-08-28 07:15:41 51°16.14 2°53.502 338 12.9 331.7 12.2
2002-08-28 07:15:46 51°16.156 2°53.488 338 12.9 332 12.2
2002-08-28 07:15:50 51°16.169 2°53.477 338.2 12.9 332.1 12.2
2002-08-28 07:15:56 51°16.188 2°53.461 338.5 12.9 332.2 12.2
2002-08-28 07:16:01 51°16.203 2°53.448 338.2 12.9 332.4 12.3
2002-08-28 07:16:06 51°16.219 2°53.434 337.8 12.9 331.9 12.3
2002-08-28 07:16:11 51°16.235 2°53.421 337.8 13 331.6 12.3
2002-08-28 07:16:16 51°16.25 2°53.408 337.5 13 331.5 12.4
2002-08-28 07:16:21 51°16.266 2°53.394 338 12.9 331.5 12.4
2002-08-28 07:16:26 51°16.281 2°53.38 337 12.8 330.7 12.4
2002-08-28 07:16:30 51°16.294 2°53.369 337.7 12.8 330.7 12.5
2002-08-28 07:16:36 51°16.313 2°53.353 337.8 12.8 331.2 12.5
2002-08-28 07:16:41 51°16.329 2°53.34 338 12.8 331.9 12.5
2002-08-28 07:16:46 51°16.345 2°53.327 338.2 12.8 332 12.5
2002-08-28 07:16:51 51°16.36 2°53.313 338.3 12.8 332.1 12.5
2002-08-28 07:16:56 51°16.376 2°53.3 338 12.8 332 12.5
2002-08-28 07:17:01 51°16.392 2°53.286 337.5 12.8 331.7 12.4
2002-08-28 07:17:06 51°16.407 2°53.272 338.2 12.9 331.7 12.5
2002-08-28 07:17:11 51°16.423 2°53.259 338.3 12.9 331.9 12.4
2002-08-28 07:17:16 51°16.439 2°53.245 338.3 12.9 332 12.5
2002-08-28 07:17:21 51°16.455 2°53.232 338.5 12.9 332.3 12.4
2002-08-28 07:17:26 51°16.471 2°53.219 338.3 13 332.1 12.4
2002-08-28 07:17:31 51°16.487 2°53.206 338.5 13 332.1 12.4
2002-08-28 07:17:36 51°16.503 2°53.193 338.3 13 331.7 12.3
2002-08-28 07:17:41 51°16.518 2°53.179 338.2 13 331.6 12.2
2002-08-28 07:17:46 51°16.534 2°53.165 338.3 13 331.3 12.1
2002-08-28 07:17:51 51°16.55 2°53.151 337.7 13 331.3 12
2002-08-28 07:17:56 51°16.566 2°53.137 337.7 13 331.4 11.9
2002-08-28 07:18:01 51°16.582 2°53.123 338 13 331.7 11.8
2002-08-28 07:18:06 51°16.598 2°53.11 337.8 12.9 331.9 11.8
2002-08-28 07:18:10 51°16.61 2°53.099 337.7 12.9 331.8 11.7
2002-08-28 07:18:16 51°16.629 2°53.083 338.3 13 332 11.7
2002-08-28 07:18:21 51°16.645 2°53.07 338.5 12.9 332.3 11.6
2002-08-28 07:18:26 51°16.661 2°53.056 338 12.9 331.9 11.6
2002-08-28 07:18:30 51°16.673 2°53.045 337 12.9 331.6 11.5
2002-08-28 07:18:36 51°16.692 2°53.028 336.5 12.9 330.8 11.4
2002-08-28 07:18:41 51°16.707 2°53.014 336.3 12.9 330.2 11.3
2002-08-28 07:18:46 51°16.722 2°53 335.2 12.9 329.6 11.3
2002-08-28 07:18:50 51°16.734 2°52.989 336 12.8 329.8 11.2
2002-08-28 07:18:56 51°16.753 2°52.971 336 12.9 329.2 11
2002-08-28 07:19:01 51°16.768 2°52.957 335.5 12.8 329 10.8
2002-08-28 07:19:06 51°16.783 2°52.942 335.7 12.8 329.2 10.5
2002-08-28 07:19:10 51°16.796 2°52.931 335 12.8 329.3 9.8
2002-08-28 07:19:16 51°16.814 2°52.914 335.7 12.8 329.4 9.3
2002-08-28 07:19:21 51°16.829 2°52.899 335.5 12.8 329.1 9.1
2002-08-28 07:19:26 51°16.845 2°52.884 335.3 12.8 329.2 9
2002-08-28 07:19:31 51°16.86 2°52.87 335.5 12.7 329.3 9.2
2002-08-28 07:19:36 51°16.875 2°52.856 335.3 12.8 329.3 9.2
2002-08-28 07:19:41 51°16.891 2°52.841 335.5 12.8 329.5 9.2
2002-08-28 07:19:46 51°16.906 2°52.827 336.2 12.9 330 9.2
2002-08-28 07:19:50 51°16.919 2°52.815 336.2 13 330 9.5
2002-08-28 07:19:55 51°16.934 2°52.801 335.7 13 329.8 9.6
2002-08-28 07:20:01 51°16.953 2°52.784 336.2 13 330.3 9.7
2002-08-28 07:20:06 51°16.968 2°52.768 335.5 13 329.7 9.8
2002-08-28 07:20:10 51°16.981 2°52.757 335.7 13 329.7 9.7
2002-08-28 07:20:16 51°17 2°52.739 335.8 13 329.7 9.9
2002-08-28 07:20:21 51°17.016 2°52.725 336.3 12.9 329.9 9.9
2002-08-28 07:20:26 51°17.031 2°52.71 335.8 12.9 329.8 10.3
2002-08-28 07:20:31 51°17.047 2°52.697 336.7 13 330.5 10.2
2002-08-28 07:20:36 51°17.063 2°52.683 337.5 13 331.6 10.4
2002-08-28 07:20:41 51°17.079 2°52.671 340 13 333.7 10
2002-08-28 07:20:46 51°17.095 2°52.659 341.2 13 334.8 9.7
2002-08-28 07:20:50 51°17.108 2°52.649 341.5 12.9 335.6 9.4
2002-08-28 07:20:54 51°17.121 2°52.641 342.7 12.9 336.4 9.6
2002-08-28 07:21:01 51°17.144 2°52.625 343.3 12.8 337 9.7
2002-08-28 07:21:06 51°17.161 2°52.614 343.5 12.8 337.2 9.8
2002-08-28 07:21:10 51°17.174 2°52.605 343.7 12.9 337.3 9.7
2002-08-28 07:21:16 51°17.194 2°52.592 343.8 12.9 337.5 9.6
2002-08-28 07:21:21 51°17.211 2°52.583 345 12.9 339.4 9.9
2002-08-28 07:21:26 51°17.228 2°52.573 347.3 12.9 340.3 9.8
2002-08-28 07:21:30 51°17.241 2°52.567 350 12.9 343.4 9.8
2002-08-28 07:21:36 51°17.262 2°52.56 352.7 12.8 346.3 9.8
2002-08-28 07:21:41 51°17.28 2°52.555 355 12.8 348.3 10
2002-08-28 07:21:46 51°17.297 2°52.551 357.5 12.7 350.3 10
2002-08-28 07:21:50 51°17.311 2°52.549 0.2 12.7 353.5 10.3
2002-08-28 07:21:56 51°17.333 2°52.547 2 12.8 355.4 9.9
2002-08-28 07:22:01 51°17.351 2°52.545 3.3 12.9 356.8 10.1
2002-08-28 07:22:06 51°17.369 2°52.546 5 13 358.6 10.1
2002-08-28 07:22:10 51°17.383 2°52.545 4.7 13 358.7 10.3
2002-08-28 07:22:16 51°17.405 2°52.545 6 13.1 359.7 10.2
2002-08-28 07:22:21 51°17.423 2°52.545 5.8 13.2 359.5 10.1
2002-08-28 07:22:26 51°17.442 2°52.545 5.8 13.2 359.7 10.1
2002-08-28 07:22:31 51°17.46 2°52.544 5.8 13.3 359.6 10.1
2002-08-28 07:22:36 51°17.479 2°52.544 6.2 13.4 359.6 10.1
2002-08-28 07:22:41 51°17.498 2°52.544 5.8 13.4 359.6 10.3
2002-08-28 07:22:46 51°17.516 2°52.543 5.8 13.4 359.6 10.3
2002-08-28 07:22:51 51°17.535 2°52.543 5.8 13.4 359.6 10.2
2002-08-28 07:22:56 51°17.553 2°52.542 5.8 13.4 359.3 10
2002-08-28 07:23:01 51°17.572 2°52.543 6.2 13.5 359.8 10.1
2002-08-28 07:23:06 51°17.591 2°52.542 5.3 13.6 359.2 10.3
2002-08-28 07:23:11 51°17.61 2°52.542 5.8 13.5 359.7 10.1
2002-08-28 07:23:16 51°17.629 2°52.541 5.2 13.6 359.3 10.4
2002-08-28 07:23:21 51°17.648 2°52.541 5.7 13.5 359.7 10.3
2002-08-28 07:23:26 51°17.666 2°52.541 5.2 13.5 359.5 10.1
2002-08-28 07:23:31 51°17.685 2°52.54 5 13.5 359.1 10.3
2002-08-28 07:23:36 51°17.704 2°52.539 5 13.5 358.6 10.3
2002-08-28 07:23:41 51°17.723 2°52.539 4.8 13.5 358.4 10.4
2002-08-28 07:23:46 51°17.741 2°52.538 4.8 13.5 358.2 10.1
2002-08-28 07:23:50 51°17.756 2°52.536 4.2 13.5 358 10.1
2002-08-28 07:23:56 51°17.779 2°52.535 4.7 13.5 358 10
2002-08-28 07:24:01 51°17.797 2°52.534 4.5 13.5 357.8 10.1
2002-08-28 07:24:06 51°17.816 2°52.533 4 13.5 357.7 10.3
2002-08-28 07:24:10 51°17.831 2°52.532 3.8 13.6 357.5 10.4
2002-08-28 07:24:16 51°17.854 2°52.53 4 13.6 357.7 10.3
2002-08-28 07:24:21 51°17.873 2°52.53 4 13.6 358 10.5
2002-08-28 07:24:26 51°17.892 2°52.528 4 13.6 357.9 10.4
2002-08-28 07:24:31 51°17.91 2°52.527 3.8 13.6 357.6 10.3
2002-08-28 07:24:36 51°17.929 2°52.525 3.5 13.6 357.4 10.5
2002-08-28 07:24:41 51°17.948 2°52.524 4 13.6 357.3 10.5
2002-08-28 07:24:46 51°17.967 2°52.523 3.8 13.6 357.2 10.6
2002-08-28 07:24:50 51°17.982 2°52.521 3.5 13.7 357.2 10.3
2002-08-28 07:24:56 51°18.005 2°52.52 4.2 13.7 357.6 10.6
2002-08-28 07:25:01 51°18.024 2°52.518 3.3 13.7 357 10.7
2002-08-28 07:25:06 51°18.043 2°52.517 3.8 13.7 357.2 10.5
2002-08-28 07:25:10 51°18.058 2°52.515 2.8 13.6 356.8 10.7
2002-08-28 07:25:16 51°18.08 2°52.513 3.5 13.6 356.7 10.6
2002-08-28 07:25:21 51°18.099 2°52.511 2.7 13.6 356 10.7
2002-08-28 07:25:26 51°18.118 2°52.509 3 13.6 356.6 10.8
2002-08-28 07:25:31 51°18.137 2°52.507 2.3 13.6 356 10.5
2002-08-28 07:25:36 51°18.156 2°52.506 3.5 13.6 356.8 10.8
2002-08-28 07:25:41 51°18.174 2°52.503 2.7 13.6 356.3 10.6
2002-08-28 07:25:46 51°18.193 2°52.502 3.3 13.6 356.8 10.9
2002-08-28 07:25:51 51°18.212 2°52.5 3 13.6 356.7 10.8
2002-08-28 07:25:56 51°18.231 2°52.498 3.2 13.6 356.7 10.8
2002-08-28 07:26:01 51°18.25 2°52.497 3.3 13.6 356.8 11
2002-08-28 07:26:06 51°18.269 2°52.495 3.2 13.6 357.1 10.9
2002-08-28 07:26:11 51°18.288 2°52.493 2.8 13.7 356.8 10.8
2002-08-28 07:26:16 51°18.307 2°52.492 3.3 13.7 357.3 11
2002-08-28 07:26:21 51°18.326 2°52.491 3.8 13.6 357.8 10.9
2002-08-28 07:26:26 51°18.344 2°52.495 9 13.5 2.7 10.9
2002-08-28 07:26:30 51°18.359 2°52.498 14.2 13.4 7.4 10.8
2002-08-28 07:26:36 51°18.38 2°52.508 19 13.3 14 11
2002-08-28 07:26:41 51°18.397 2°52.518 23.7 13.2 17.6 11.1
2002-08-28 07:26:46 51°18.413 2°52.532 30.2 13.1 24.4 11.1
2002-08-28 07:26:51 51°18.429 2°52.546 33 13 28.1 11.1
2002-08-28 07:26:56 51°18.443 2°52.564 40.5 13 36.1 11.2
2002-08-28 07:27:01 51°18.456 2°52.583 44.3 12.9 39.7 11.2
2002-08-28 07:27:06 51°18.468 2°52.605 51.8 12.9 46.2 11.3
2002-08-28 07:27:09 51°18.474 2°52.618 55.5 12.8 51 11
2002-08-28 07:27:16 51°18.489 2°52.65 56.8 12.8 54 11.1
2002-08-28 07:27:21 51°18.498 2°52.674 59.3 12.8 56.5 11
2002-08-28 07:27:26 51°18.507 2°52.699 63.2 12.9 58.6 11.1
2002-08-28 07:27:30 51°18.513 2°52.72 65.7 12.9 62.4 11.2
2002-08-28 07:27:34 51°18.519 2°52.74 68.8 12.8 65.5 11.3
2002-08-28 07:27:40 51°18.527 2°52.772 70.3 12.9 67.3 11.4
2002-08-28 07:27:46 51°18.534 2°52.804 71.8 12.9 68.9 11.3
2002-08-28 07:27:50 51°18.539 2°52.826 73 12.9 70.1 11.4
2002-08-28 07:27:54 51°18.544 2°52.848 72.8 13 70.7 11.2
2002-08-28 07:28:00 51°18.551 2°52.88 73.7 13 70.9 11.2
2002-08-28 07:28:05 51°18.556 2°52.908 75.3 13 72.6 11.2
2002-08-28 07:28:11 51°18.563 2°52.941 73.8 13.1 71.6 11.3
2002-08-28 07:28:16 51°18.568 2°52.969 75.3 13.1 72.9 11.3
2002-08-28 07:28:21 51°18.573 2°52.995 75.2 13 72.5 11.3
2002-08-28 07:28:26 51°18.578 2°53.023 75.3 13 73.3 11.4
2002-08-28 07:28:30 51°18.583 2°53.045 75.2 13.1 72.8 11.4
2002-08-28 07:28:36 51°18.589 2°53.079 76.2 13.2 73.4 11.3
2002-08-28 07:28:41 51°18.595 2°53.107 75.2 13.2 72.3 11.3
2002-08-28 07:28:46 51°18.6 2°53.135 76.3 13.2 73.4 11.4
2002-08-28 07:28:51 51°18.606 2°53.162 73.8 13.1 71.9 11.4
2002-08-28 07:28:56 51°18.61 2°53.19 75.8 13.1 72.9 11.4
2002-08-28 07:29:00 51°18.615 2°53.212 74.3 13.1 73.2 11.2
2002-08-28 07:29:05 51°18.62 2°53.24 76.7 13.1 73.9 11.1
2002-08-28 07:29:10 51°18.625 2°53.268 76.5 13.2 73.7 11
2002-08-28 07:29:14 51°18.629 2°53.291 76.2 13.2 73.8 11.1
2002-08-28 07:29:21 51°18.636 2°53.329 76.3 13.1 73.6 11.3
2002-08-28 07:29:26 51°18.642 2°53.357 75.5 13.1 73.3 11.4
2002-08-28 07:29:31 51°18.647 2°53.385 76.2 13.2 73.6 11.4
2002-08-28 07:29:35 51°18.65 2°53.408 76.7 13.2 74.3 11.4
2002-08-28 07:29:41 51°18.656 2°53.442 78.7 13.1 75.3 11.4
2002-08-28 07:29:45 51°18.66 2°53.464 76.3 13.2 75 11.4
2002-08-28 07:29:50 51°18.665 2°53.493 76.3 13.3 74.6 11.3
2002-08-28 07:29:56 51°18.671 2°53.526 77.3 13.2 74.1 11.3
2002-08-28 07:30:01 51°18.676 2°53.554 76.2 13.1 73.8 11.3
2002-08-28 07:30:06 51°18.681 2°53.582 76.7 13.1 73.6 11.3
2002-08-28 07:30:10 51°18.686 2°53.604 75.7 13.2 73.5 11.3
2002-08-28 07:30:16 51°18.692 2°53.638 75.7 13.2 73.1 11.2
2002-08-28 07:30:21 51°18.697 2°53.666 76.8 13.2 74 11.2
2002-08-28 07:30:26 51°18.702 2°53.694 76 13.2 73.8 11.2
2002-08-28 07:30:30 51°18.705 2°53.717 77 13.1 74.5 11.2
2002-08-28 07:30:36 51°18.712 2°53.75 76.3 13.1 74 11.3
2002-08-28 07:30:41 51°18.717 2°53.778 77.2 13.1 74.4 11.3
2002-08-28 07:30:45 51°18.721 2°53.8 77 13.1 73.6 11.4
2002-08-28 07:30:50 51°18.726 2°53.828 77.2 13.2 74.1 11.4
2002-08-28 07:30:54 51°18.73 2°53.851 77.5 13.2 74.4 11.3
2002-08-28 07:31:01 51°18.736 2°53.89 77.3 13.3 74.7 11.3
2002-08-28 07:31:05 51°18.74 2°53.913 77.2 13.2 74.4 11.3
2002-08-28 07:31:10 51°18.745 2°53.941 76.7 13.2 74.6 11.3
2002-08-28 07:31:16 51°18.751 2°53.975 76.7 13.2 74 11.2
2002-08-28 07:31:20 51°18.755 2°53.997 76.2 13.1 74.1 11.2
2002-08-28 07:31:25 51°18.76 2°54.024 76 13.1 74.1 11.2
2002-08-28 07:31:30 51°18.764 2°54.053 77.5 13.2 75 11.2
2002-08-28 07:31:36 51°18.771 2°54.086 75.5 13.2 73.7 11.2
2002-08-28 07:31:41 51°18.776 2°54.115 77.2 13.2 74.9 11.2
2002-08-28 07:31:46 51°18.781 2°54.143 77 13.2 74.9 11.1
2002-08-28 07:31:50 51°18.784 2°54.165 78.3 13.2 75.3 11.1
2002-08-28 07:31:54 51°18.788 2°54.188 77.7 13.2 75.4 11.1
2002-08-28 07:32:00 51°18.795 2°54.222 76.7 13.2 74.2 11.1
2002-08-28 07:32:06 51°18.8 2°54.255 76.7 13.2 74 11.1
2002-08-28 07:32:10 51°18.804 2°54.277 76.7 13.2 74.1 11.2
2002-08-28 07:32:15 51°18.81 2°54.306 76.2 13.2 73.6 11.2
2002-08-28 07:32:21 51°18.815 2°54.339 76.8 13.2 74 11.1
2002-08-28 07:32:25 51°18.819 2°54.362 77.2 13.2 75.3 11
2002-08-28 07:32:30 51°18.824 2°54.39 75.8 13.2 74.1 10.9
2002-08-28 07:32:34 51°18.827 2°54.413 78.2 13.2 75.4 11
2002-08-28 07:32:41 51°18.834 2°54.452 76.7 13.1 75.2 11
2002-08-28 07:32:45 51°18.837 2°54.474 77.8 13.1 75.7 10.9
2002-08-28 07:32:50 51°18.843 2°54.502 77.2 13.1 75.1 11
2002-08-28 07:32:56 51°18.849 2°54.536 76.5 13.2 74 10.9
2002-08-28 07:33:01 51°18.853 2°54.564 77.3 13.1 74.8 11
2002-08-28 07:33:05 51°18.857 2°54.586 77 13.1 74.6 11
2002-08-28 07:33:10 51°18.862 2°54.614 75.7 13.1 73.6 11
2002-08-28 07:33:14 51°18.866 2°54.636 76.8 13.1 74.5 11.1
2002-08-28 07:33:21 51°18.873 2°54.675 76.7 13 74.3 11.1
2002-08-28 07:33:25 51°18.876 2°54.698 76.8 13.1 74.3 11.1
2002-08-28 07:33:29 51°18.881 2°54.72 76.7 13.1 74.2 11.2
2002-08-28 07:33:36 51°18.888 2°54.759 76.3 13.2 73.7 11.1
2002-08-28 07:33:40 51°18.892 2°54.781 77 13.1 73.6 11.1
2002-08-28 07:33:46 51°18.897 2°54.815 78 13.1 74.6 11.1
2002-08-28 07:33:50 51°18.901 2°54.837 76.2 13.1 73.9 11.2
2002-08-28 07:33:56 51°18.906 2°54.871 78.5 13.1 74.8 11.1
2002-08-28 07:34:01 51°18.912 2°54.898 76.2 13.1 74.2 11.1
2002-08-28 07:34:06 51°18.915 2°54.927 79.3 13 75.5 11
2002-08-28 07:34:10 51°18.92 2°54.949 76.7 13 74.2 11
2002-08-28 07:34:14 51°18.924 2°54.971 78.3 13 74.8 11.1
2002-08-28 07:34:20 51°18.93 2°55.004 76 13 73.4 11
2002-08-28 07:34:26 51°18.935 2°55.038 78 13 74.4 11
2002-08-28 07:34:31 51°18.941 2°55.066 76.8 13 74.2 11
2002-08-28 07:34:36 51°18.944 2°55.094 78.2 13 75.2 11
2002-08-28 07:34:41 51°18.95 2°55.122 77.3 13.1 74.3 10.9
2002-08-28 07:34:45 51°18.953 2°55.144 77.7 13.1 75 11
2002-08-28 07:34:50 51°18.958 2°55.172 76.8 13 74 10.9
2002-08-28 07:34:56 51°18.963 2°55.206 77.5 13.1 74.8 10.9
2002-08-28 07:35:01 51°18.969 2°55.233 76.2 13.1 73.7 10.8
2002-08-28 07:35:05 51°18.972 2°55.256 78 13.2 74.8 10.9
2002-08-28 07:35:10 51°18.978 2°55.283 77.2 13.2 74.2 10.9
2002-08-28 07:35:16 51°18.983 2°55.317 77 13.1 74.5 10.9
2002-08-28 07:35:21 51°18.988 2°55.344 76.5 13 74.4 10.9
2002-08-28 07:35:25 51°18.991 2°55.367 76.5 13.1 75.1 10.8
2002-08-28 07:35:30 51°18.997 2°55.395 76 13.1 74.1 10.7
2002-08-28 07:35:36 51°19.003 2°55.428 76.7 13.1 74.5 10.7
2002-08-28 07:35:41 51°19.008 2°55.456 76.3 13.1 74.3 10.8
2002-08-28 07:35:46 51°19.012 2°55.485 77.2 13.1 74.6 10.8
2002-08-28 07:35:50 51°19.016 2°55.507 76.8 13.1 74.5 10.7
2002-08-28 07:35:56 51°19.022 2°55.54 77 13.1 74.2 10.7
2002-08-28 07:36:01 51°19.027 2°55.568 77.8 13.1 75 10.7
2002-08-28 07:36:05 51°19.031 2°55.59 77.2 13 74.7 10.7
2002-08-28 07:36:09 51°19.035 2°55.613 77.3 13 74.7 10.8
2002-08-28 07:36:14 51°19.04 2°55.64 77.8 13.1 74.5 10.8
2002-08-28 07:36:20 51°19.045 2°55.674 77.2 13.1 74.5 10.8
2002-08-28 07:36:26 51°19.051 2°55.707 77.8 13 74 10.8
2002-08-28 07:36:30 51°19.055 2°55.73 77.5 13 74.7 10.8
2002-08-28 07:36:34 51°19.06 2°55.752 76.2 13.1 73.6 10.7
2002-08-28 07:36:40 51°19.065 2°55.785 77.5 13 74.4 10.7
2002-08-28 07:36:46 51°19.071 2°55.818 77.2 13 74.6 10.7
2002-08-28 07:36:50 51°19.074 2°55.841 77.2 13 74.5 10.7
2002-08-28 07:36:56 51°19.08 2°55.874 77.3 13 74.7 10.7
2002-08-28 07:37:01 51°19.085 2°55.902 77.7 13.1 74.7 10.6
2002-08-28 07:37:06 51°19.09 2°55.929 76.7 13.1 74.6 10.6
2002-08-28 07:37:10 51°19.093 2°55.952 77.7 13 74.9 10.5
2002-08-28 07:37:14 51°19.097 2°55.974 76.8 13 74.7 10.5
2002-08-28 07:37:21 51°19.104 2°56.013 75.8 13 73.9 10.5
2002-08-28 07:37:25 51°19.107 2°56.035 78.5 12.9 76 10.7
2002-08-28 07:37:30 51°19.113 2°56.062 76.7 12.9 74.3 10.5
2002-08-28 07:37:36 51°19.118 2°56.096 76.7 13.1 75 10.5
2002-08-28 07:37:40 51°19.123 2°56.118 76 13.1 73.4 10.5
2002-08-28 07:37:45 51°19.127 2°56.146 77.8 13 74.4 10.4
2002-08-28 07:37:50 51°19.132 2°56.174 77.2 13 73.9 10.5
2002-08-28 07:37:55 51°19.137 2°56.202 77.5 13.1 74.6 10.5
2002-08-28 07:38:00 51°19.143 2°56.229 76.8 13.1 73.3 10.4
2002-08-28 07:38:06 51°19.147 2°56.263 78.5 13 75.6 10.3
2002-08-28 07:38:11 51°19.153 2°56.291 76 13 73.8 10.2
2002-08-28 07:38:15 51°19.156 2°56.313 78.3 13 75.7 10.3
2002-08-28 07:38:20 51°19.162 2°56.341 76.5 13.1 74.2 10.3
2002-08-28 07:38:25 51°19.165 2°56.369 78.7 13.1 75.7 10.2
2002-08-28 07:38:30 51°19.172 2°56.396 75.2 13 72.7 10.3
2002-08-28 07:38:36 51°19.176 2°56.43 77.2 13 74.5 10.3
2002-08-28 07:38:41 51°19.182 2°56.457 76.3 13 73.7 10.4
2002-08-28 07:38:46 51°19.186 2°56.486 77.5 13.1 74.4 10.3
2002-08-28 07:38:50 51°19.191 2°56.507 77.7 13.1 74.3 10.4
2002-08-28 07:38:54 51°19.194 2°56.53 76.8 13 74.3 10.3
2002-08-28 07:39:01 51°19.202 2°56.569 77 13 73.8 10.3
2002-08-28 07:39:05 51°19.206 2°56.591 75 13 73.1 10.2
2002-08-28 07:39:10 51°19.212 2°56.618 73.8 13 71.7 10.1
2002-08-28 07:39:16 51°19.219 2°56.651 73.5 13 71.7 10
2002-08-28 07:39:21 51°19.226 2°56.678 71.7 13 68.9 10
2002-08-28 07:39:25 51°19.231 2°56.699 71.2 13.1 69.1 10.1
2002-08-28 07:39:30 51°19.239 2°56.726 70 13.1 67.3 10.1
2002-08-28 07:39:34 51°19.244 2°56.747 70.3 13.1 67.3 10.1
2002-08-28 07:39:41 51°19.254 2°56.785 70.3 13 67.7 10.2
2002-08-28 07:39:45 51°19.259 2°56.806 70 13 67.2 10.1
2002-08-28 07:39:50 51°19.266 2°56.832 71.8 12.9 68.5 10.1
2002-08-28 07:39:56 51°19.274 2°56.865 71.5 13 68.3 10
2002-08-28 07:40:01 51°19.281 2°56.892 71.5 13.1 68.1 9.8
2002-08-28 07:40:05 51°19.285 2°56.913 73 13 69.3 10
2002-08-28 07:40:10 51°19.293 2°56.939 71 12.9 67.8 10
2002-08-28 07:40:15 51°19.299 2°56.967 72.2 13 69.1 10
2002-08-28 07:40:21 51°19.308 2°56.998 71.2 13 67.8 9.8
2002-08-28 07:40:26 51°19.314 2°57.026 71.5 13 69 10
2002-08-28 07:40:31 51°19.321 2°57.052 70.8 13 67.6 10.1
2002-08-28 07:40:35 51°19.325 2°57.074 72.3 12.9 69 10.1
2002-08-28 07:40:40 51°19.332 2°57.1 71.8 13 68.6 10.1
2002-08-28 07:40:46 51°19.34 2°57.133 71.7 13 68.5 10.2
2002-08-28 07:40:50 51°19.346 2°57.154 71.7 13 68.5 10.1
2002-08-28 07:40:55 51°19.352 2°57.181 71.7 13.1 68.3 10
2002-08-28 07:41:01 51°19.361 2°57.213 71.8 13 68.2 10.1
2002-08-28 07:41:06 51°19.367 2°57.24 71.5 13 69 10
2002-08-28 07:41:11 51°19.374 2°57.267 71.5 13.1 68.2 10
2002-08-28 07:41:15 51°19.379 2°57.289 71.7 13.1 68.6 10
2002-08-28 07:41:20 51°19.386 2°57.316 71.7 13.1 68.7 9.8
2002-08-28 07:41:25 51°19.393 2°57.342 71 13 67.7 9.8
2002-08-28 07:41:30 51°19.399 2°57.369 70.7 13.1 68.7 9.8
2002-08-28 07:41:36 51°19.407 2°57.401 71.3 13 68.6 9.8
2002-08-28 07:41:41 51°19.413 2°57.428 72.7 12.9 69.3 9.9
2002-08-28 07:41:46 51°19.421 2°57.454 70.7 13 67.6 9.9
2002-08-28 07:41:50 51°19.426 2°57.476 71 13 68.2 10
2002-08-28 07:41:54 51°19.431 2°57.497 71.8 12.9 67.9 9.9
2002-08-28 07:42:01 51°19.44 2°57.535 72.3 13 68.7 9.9
2002-08-28 07:42:05 51°19.446 2°57.556 70.8 13 67.5 10
2002-08-28 07:42:10 51°19.452 2°57.583 72.5 13 69 10
2002-08-28 07:42:16 51°19.461 2°57.615 71 13 68.3 9.9
2002-08-28 07:42:20 51°19.465 2°57.636 73 12.9 69.5 9.8
2002-08-28 07:42:25 51°19.472 2°57.663 71.2 12.9 68.6 9.8
2002-08-28 07:42:30 51°19.478 2°57.69 72 13 69.4 9.8
2002-08-28 07:42:34 51°19.483 2°57.711 73.3 13 70.2 9.7
2002-08-28 07:42:41 51°19.491 2°57.749 72.5 12.9 70.4 9.5
2002-08-28 07:42:45 51°19.496 2°57.771 73.3 12.9 71 9.4
2002-08-28 07:42:50 51°19.503 2°57.797 72.2 13 69 9.4
2002-08-28 07:42:54 51°19.508 2°57.819 72 13 68.8 9.7
2002-08-28 07:43:01 51°19.517 2°57.856 71.8 12.9 68.5 9.8
2002-08-28 07:43:05 51°19.523 2°57.877 71.7 12.9 68.2 10
2002-08-28 07:43:10 51°19.529 2°57.904 72 13 68.4 10
2002-08-28 07:43:16 51°19.537 2°57.937 71.7 13 68.4 10
2002-08-28 07:43:21 51°19.544 2°57.963 71.3 13 68.2 10
2002-08-28 07:43:26 51°19.551 2°57.99 71.5 13 67.8 9.9
2002-08-28 07:43:30 51°19.556 2°58.011 72 13 68.3 9.8
2002-08-28 07:43:35 51°19.563 2°58.038 71.2 12.9 68 9.8
2002-08-28 07:43:40 51°19.569 2°58.065 71.3 13 68.3 9.7
2002-08-28 07:43:46 51°19.578 2°58.096 71 13 67.6 9.6
2002-08-28 07:43:51 51°19.584 2°58.123 70.7 13 67.8 9.6
2002-08-28 07:43:55 51°19.59 2°58.144 70.7 13 67.4 9.6
2002-08-28 07:44:01 51°19.598 2°58.176 71.5 13 68.1 9.5
2002-08-28 07:44:05 51°19.603 2°58.198 72.5 13 68.5 9.5
2002-08-28 07:44:10 51°19.61 2°58.225 70.7 13 67.8 9.6
2002-08-28 07:44:15 51°19.616 2°58.251 72.3 13 69.4 9.6
2002-08-28 07:44:20 51°19.623 2°58.278 71 13 68.3 9.6
2002-08-28 07:44:26 51°19.63 2°58.311 73.2 13 69.7 9.6
2002-08-28 07:44:30 51°19.636 2°58.332 71.3 13.1 68.3 9.6
2002-08-28 07:44:34 51°19.641 2°58.354 72.3 13 69.3 9.6
2002-08-28 07:44:37 51°19.644 2°58.37 71.5 12.9 68 9.6
2002-08-28 07:44:45 51°19.654 2°58.413 73 13 69.5 9.6
2002-08-28 07:44:50 51°19.662 2°58.439 71.2 13 68.2 9.6
2002-08-28 07:44:56 51°19.668 2°58.472 72.7 13 69.6 9.6
2002-08-28 07:45:01 51°19.675 2°58.498 72 13 68.8 9.5
2002-08-28 07:45:06 51°19.682 2°58.525 72.8 13 69.4 9.5
2002-08-28 07:45:10 51°19.687 2°58.547 72.8 13.1 69.6 9.6
2002-08-28 07:45:14 51°19.692 2°58.569 71.2 13.1 68.6 9.6
2002-08-28 07:45:20 51°19.699 2°58.601 73.7 12.9 70.5 9.5
2002-08-28 07:45:25 51°19.706 2°58.627 71.8 12.9 68.9 9.5
2002-08-28 07:45:30 51°19.712 2°58.655 72.3 13 69 9.5
2002-08-28 07:45:36 51°19.72 2°58.687 72.2 13 69.2 9.4
2002-08-28 07:45:40 51°19.725 2°58.708 71.2 13 69.1 9.3
2002-08-28 07:45:46 51°19.733 2°58.74 72.5 13 69.2 9.3
2002-08-28 07:45:50 51°19.738 2°58.761 72 12.9 68.7 9.3
2002-08-28 07:45:54 51°19.743 2°58.783 72.2 13 68.7 9.3
2002-08-28 07:46:01 51°19.752 2°58.82 71.7 12.9 68.7 9.3
2002-08-28 07:46:05 51°19.757 2°58.841 72.3 12.8 69.1 9.4
2002-08-28 07:46:10 51°19.764 2°58.868 72.5 12.8 69.2 9.3
2002-08-28 07:46:16 51°19.771 2°58.901 72.2 13 69.1 9.3
2002-08-28 07:46:21 51°19.778 2°58.927 72.3 12.9 68.8 9.3
2002-08-28 07:46:25 51°19.783 2°58.948 72.5 12.8 69 9.2
2002-08-28 07:46:30 51°19.789 2°58.974 71.3 12.8 68.7 9.3
2002-08-28 07:46:36 51°19.797 2°59.006 71.8 12.8 68.7 9.3
2002-08-28 07:46:41 51°19.804 2°59.033 71.7 12.9 68.4 9.3
2002-08-28 07:46:46 51°19.809 2°59.06 73 12.8 69.7 9.3
2002-08-28 07:46:50 51°19.815 2°59.081 71.8 12.8 69.2 9.2
2002-08-28 07:46:56 51°19.821 2°59.113 72.8 12.8 69.9 9.3
2002-08-28 07:47:01 51°19.828 2°59.139 71.8 12.7 69.5 9.3
2002-08-28 07:47:05 51°19.833 2°59.16 72.5 12.7 69.9 9.2
2002-08-28 07:47:10 51°19.839 2°59.186 73.3 12.7 69.8 9.2
2002-08-28 07:47:16 51°19.846 2°59.218 71.7 12.8 69.5 9.2
2002-08-28 07:47:21 51°19.852 2°59.244 72.3 12.9 69.3 9.2
2002-08-28 07:47:25 51°19.858 2°59.265 71.8 12.8 68.7 9.2
2002-08-28 07:47:30 51°19.863 2°59.292 72.2 12.7 69.3 9.2
2002-08-28 07:47:35 51°19.869 2°59.318 72.7 12.7 69.3 9.2
2002-08-28 07:47:41 51°19.877 2°59.35 72 12.7 69.3 9
2002-08-28 07:47:45 51°19.882 2°59.371 71.7 12.8 69.3 8.9
2002-08-28 07:47:50 51°19.889 2°59.397 72 12.8 69.1 8.8
2002-08-28 07:47:56 51°19.896 2°59.429 73 12.7 69.4 8.8
2002-08-28 07:48:01 51°19.902 2°59.455 72.3 12.7 69.2 8.9
2002-08-28 07:48:05 51°19.907 2°59.477 72.5 12.7 69.9 9
2002-08-28 07:48:10 51°19.913 2°59.503 72.5 12.7 69.8 9.1
2002-08-28 07:48:14 51°19.918 2°59.524 72.5 12.7 69.7 9.1
2002-08-28 07:48:21 51°19.927 2°59.561 71.5 12.7 69.4 9.2
2002-08-28 07:48:25 51°19.932 2°59.581 70.5 12.7 68 9.1
2002-08-28 07:48:29 51°19.937 2°59.603 72.2 12.6 69.4 9.1
2002-08-28 07:48:36 51°19.946 2°59.639 70.7 12.7 68.2 9
2002-08-28 07:48:41 51°19.952 2°59.665 72.2 12.7 69 9
2002-08-28 07:48:45 51°19.958 2°59.686 71.3 12.7 68.5 8.9
2002-08-28 07:48:50 51°19.964 2°59.712 71.2 12.7 68.2 8.9
2002-08-28 07:48:56 51°19.971 2°59.743 72.2 12.7 68.7 8.9
2002-08-28 07:49:01 51°19.978 2°59.769 71.8 12.6 69.1 8.8
2002-08-28 07:49:06 51°19.984 2°59.796 72.7 12.6 69.4 8.8
2002-08-28 07:49:10 51°19.989 2°59.817 72.2 12.6 69.6 8.8
2002-08-28 07:49:14 51°19.994 2°59.837 72 12.6 69.1 8.8
2002-08-28 07:49:20 51°20.001 2°59.869 72.7 12.7 69.1 8.8
2002-08-28 07:49:26 51°20.009 2°59.9 71.7 12.7 68.4 8.7
2002-08-28 07:49:31 51°20.016 2°59.927 71.5 12.7 68.8 8.7
2002-08-28 07:49:35 51°20.021 2°59.948 71 12.7 68.3 8.5
2002-08-28 07:49:41 51°20.028 2°59.978 71.7 12.5 69.2 8.7
2002-08-28 07:49:46 51°20.034 3°0.004 71.7 12.5 68.9 8.7
2002-08-28 07:49:49 51°20.039 3°0.02 72.7 12.6 68.7 8.7
2002-08-28 07:49:53 51°20.043 3°0.041 72.3 12.6 69 8.8
2002-08-28 07:50:01 51°20.053 3°0.083 72 12.6 69.4 8.9
2002-08-28 07:50:06 51°20.059 3°0.109 73.2 12.6 69.5 8.9
2002-08-28 07:50:10 51°20.064 3°0.129 72.7 12.6 69.3 8.9
2002-08-28 07:50:16 51°20.072 3°0.161 72.2 12.6 68.9 8.9
2002-08-28 07:50:21 51°20.079 3°0.187 71.8 12.6 68.3 8.8
2002-08-28 07:50:25 51°20.083 3°0.207 71.5 12.5 68.8 8.8
2002-08-28 07:50:30 51°20.09 3°0.233 71.3 12.5 68.9 8.8
2002-08-28 07:50:36 51°20.098 3°0.264 71.3 12.6 68.8 8.8
2002-08-28 07:50:41 51°20.104 3°0.29 72.3 12.6 68.4 8.8
2002-08-28 07:50:46 51°20.11 3°0.316 72.5 12.6 69.1 8.8
2002-08-28 07:50:50 51°20.115 3°0.337 71.3 12.6 68.6 8.9
2002-08-28 07:50:56 51°20.122 3°0.369 73.7 12.6 69.8 8.9
2002-08-28 07:51:01 51°20.13 3°0.394 70.5 12.6 67.8 8.9
2002-08-28 07:51:05 51°20.134 3°0.415 72.5 12.6 68.9 9
2002-08-28 07:51:10 51°20.141 3°0.441 70.8 12.6 67.5 8.9
2002-08-28 07:51:16 51°20.148 3°0.472 71.2 12.6 68.2 8.9
2002-08-28 07:51:20 51°20.154 3°0.492 69.5 12.6 66.9 8.8
2002-08-28 07:51:25 51°20.161 3°0.518 69.5 12.6 66.9 8.8
2002-08-28 07:51:30 51°20.168 3°0.543 69.8 12.5 66.6 8.8
2002-08-28 07:51:34 51°20.173 3°0.564 70.2 12.5 67.1 8.7
2002-08-28 07:51:40 51°20.182 3°0.594 69.7 12.6 66 8.9
2002-08-28 07:51:45 51°20.189 3°0.62 69.3 12.6 66.2 8.9
2002-08-28 07:51:50 51°20.196 3°0.645 69.8 12.5 66.4 8.9
2002-08-28 07:51:54 51°20.202 3°0.665 69.5 12.6 65.9 8.9
2002-08-28 07:52:00 51°20.211 3°0.696 68 12.6 65.3 8.9
2002-08-28 07:52:06 51°20.219 3°0.726 69.7 12.5 66.1 8.8
2002-08-28 07:52:10 51°20.224 3°0.746 68.8 12.5 65.5 8.8
2002-08-28 07:52:14 51°20.23 3°0.766 69.7 12.5 65.6 8.8
2002-08-28 07:52:21 51°20.24 3°0.802 69.3 12.5 65.4 8.8
2002-08-28 07:52:25 51°20.246 3°0.822 69.2 12.5 65.7 8.9
2002-08-28 07:52:29 51°20.251 3°0.842 69.7 12.5 66 8.8
2002-08-28 07:52:36 51°20.261 3°0.878 70.3 12.5 66.2 8.8
2002-08-28 07:52:41 51°20.268 3°0.903 69.7 12.6 65.9 8.8
2002-08-28 07:52:45 51°20.274 3°0.923 69.7 12.5 65.8 8.9
2002-08-28 07:52:50 51°20.281 3°0.948 69.8 12.4 66 8.8
2002-08-28 07:52:56 51°20.289 3°0.978 69 12.4 65.8 8.8
2002-08-28 07:53:00 51°20.295 3°0.999 67.7 12.6 64.9 8.8
2002-08-28 07:53:06 51°20.303 3°1.029 71 12.5 66.6 8.9
2002-08-28 07:53:10 51°20.309 3°1.049 68.2 12.4 65.4 8.9
2002-08-28 07:53:14 51°20.314 3°1.07 71.2 12.4 67.2 8.8
2002-08-28 07:53:17 51°20.318 3°1.085 70.2 12.4 67.4 8.9
2002-08-28 07:53:25 51°20.328 3°1.126 70.3 12.4 67.7 8.9
2002-08-28 07:53:29 51°20.333 3°1.146 70.2 12.4 67.3 8.9
2002-08-28 07:53:34 51°20.339 3°1.172 71.2 12.4 68.5 8.9
2002-08-28 07:53:41 51°20.349 3°1.207 70 12.4 67.5 8.9
2002-08-28 07:53:45 51°20.354 3°1.227 70.7 12.4 67.3 9
2002-08-28 07:53:50 51°20.361 3°1.253 70 12.4 66.6 9.1
2002-08-28 07:53:55 51°20.368 3°1.278 69.8 12.4 66.8 9
2002-08-28 07:54:01 51°20.376 3°1.308 70.7 12.4 67.3 9.2
2002-08-28 07:54:05 51°20.382 3°1.328 70.5 12.4 66.5 9.1
2002-08-28 07:54:10 51°20.388 3°1.354 70.3 12.4 67.3 9.2
2002-08-28 07:54:16 51°20.396 3°1.384 70.3 12.5 67.1 9
2002-08-28 07:54:21 51°20.403 3°1.41 70.5 12.5 67.2 9
2002-08-28 07:54:26 51°20.41 3°1.434 69 12.4 65.7 9
2002-08-28 07:54:30 51°20.415 3°1.455 70.5 12.2 66.9 9
2002-08-28 07:54:35 51°20.421 3°1.48 70.7 12.3 67.2 9
2002-08-28 07:54:40 51°20.428 3°1.505 69.3 12.4 66.3 9
2002-08-28 07:54:45 51°20.435 3°1.53 70.3 12.3 67.1 9
2002-08-28 07:54:50 51°20.442 3°1.555 69.8 12.3 66.4 9
2002-08-28 07:54:56 51°20.45 3°1.585 70.8 12.4 67 9
2002-08-28 07:55:01 51°20.456 3°1.611 69.8 12.4 66.8 9
2002-08-28 07:55:05 51°20.462 3°1.631 70 12.4 67.2 9
2002-08-28 07:55:10 51°20.469 3°1.656 69.2 12.3 66.7 8.9
2002-08-28 07:55:16 51°20.477 3°1.686 68.3 12.3 66.1 8.9
2002-08-28 07:55:21 51°20.484 3°1.712 70.5 12.4 66.6 8.9
2002-08-28 07:55:26 51°20.491 3°1.737 69.3 12.4 66.9 8.9
2002-08-28 07:55:30 51°20.496 3°1.757 70.7 12.4 66.9 8.9
2002-08-28 07:55:34 51°20.501 3°1.778 69.7 12.4 67.4 8.9
2002-08-28 07:55:41 51°20.511 3°1.813 70.2 12.4 67.1 9
2002-08-28 07:55:45 51°20.517 3°1.833 70.3 12.4 67.1 9
2002-08-28 07:55:50 51°20.523 3°1.859 69.7 12.5 67 9.1
2002-08-28 07:55:56 51°20.532 3°1.889 70.5 12.4 67.2 9.1
2002-08-28 07:56:01 51°20.539 3°1.913 69.5 12.4 65.9 9
2002-08-28 07:56:05 51°20.544 3°1.934 70 12.3 66.7 9
2002-08-28 07:56:10 51°20.551 3°1.959 71.2 12.4 67.1 9
2002-08-28 07:56:14 51°20.556 3°1.979 70 12.4 66.6 9
2002-08-28 07:56:20 51°20.564 3°2.01 70.5 12.4 67.4 9.1
2002-08-28 07:56:25 51°20.571 3°2.035 71.2 12.4 67.5 9
2002-08-28 07:56:30 51°20.578 3°2.06 70 12.4 66.9 9
2002-08-28 07:56:36 51°20.586 3°2.09 69.5 12.4 66.6 9
2002-08-28 07:56:41 51°20.592 3°2.115 71 12.4 67.2 9
2002-08-28 07:56:45 51°20.599 3°2.135 69.3 12.4 66.2 9
2002-08-28 07:56:50 51°20.606 3°2.161 68.8 12.4 65.7 9
2002-08-28 07:56:56 51°20.614 3°2.191 69 12.4 65.8 9
2002-08-28 07:57:00 51°20.619 3°2.211 69.5 12.4 65.8 8.9
2002-08-28 07:57:06 51°20.628 3°2.24 69 12.4 65.4 8.9
2002-08-28 07:57:10 51°20.633 3°2.261 70 12.4 66.5 8.9
2002-08-28 07:57:14 51°20.639 3°2.281 70.2 12.3 67.1 8.8
2002-08-28 07:57:21 51°20.647 3°2.316 70.5 12.4 67.5 8.9
2002-08-28 07:57:25 51°20.653 3°2.336 70 12.4 66.6 9
2002-08-28 07:57:29 51°20.658 3°2.356 69.5 12.3 66.3 9
2002-08-28 07:57:34 51°20.665 3°2.381 69.8 12.4 66.7 8.8
2002-08-28 07:57:41 51°20.675 3°2.416 69.3 12.4 66.4 8.9
2002-08-28 07:57:45 51°20.68 3°2.436 70.8 12.3 66.9 8.8
2002-08-28 07:57:50 51°20.688 3°2.46 67.7 12.3 65.1 8.8
2002-08-28 07:57:56 51°20.695 3°2.491 69.8 12.3 66.7 8.8
2002-08-28 07:58:01 51°20.703 3°2.515 68.2 12.4 65.3 8.8
2002-08-28 07:58:06 51°20.709 3°2.541 71 12.3 67.5 8.8
2002-08-28 07:58:10 51°20.715 3°2.561 70.3 12.3 66.6 8.9
2002-08-28 07:58:15 51°20.721 3°2.586 69.8 12.3 66.9 9
2002-08-28 07:58:21 51°20.73 3°2.616 69.2 12.3 66.2 9
2002-08-28 07:58:26 51°20.736 3°2.641 70.5 12.3 67.1 9.1
2002-08-28 07:58:30 51°20.742 3°2.661 69.7 12.3 66 9.1
2002-08-28 07:58:35 51°20.748 3°2.686 69.5 12.4 66.7 9.1
2002-08-28 07:58:41 51°20.757 3°2.716 68.8 12.3 65.7 9.1
2002-08-28 07:58:45 51°20.762 3°2.736 69.7 12.3 66.3 9.1
2002-08-28 07:58:50 51°20.769 3°2.761 69.7 12.4 66.1 9.1
2002-08-28 07:58:56 51°20.777 3°2.791 70 12.3 66.7 8.9
2002-08-28 07:59:01 51°20.784 3°2.816 69.8 12.3 67.1 8.9
2002-08-28 07:59:06 51°20.79 3°2.841 70.5 12.3 67.2 8.8
2002-08-28 07:59:10 51°20.795 3°2.862 69.8 12.4 68 8.9
2002-08-28 07:59:14 51°20.801 3°2.881 71.2 12.3 67.6 8.8
2002-08-28 07:59:21 51°20.81 3°2.916 69.8 12.3 67.1 8.9
2002-08-28 07:59:25 51°20.815 3°2.937 71.2 12.3 68.1 8.8
2002-08-28 07:59:29 51°20.821 3°2.956 68.5 12.2 66.1 8.9
2002-08-28 07:59:36 51°20.829 3°2.991 71.2 12.2 67.6 8.9
2002-08-28 07:59:41 51°20.836 3°3.016 70.5 12.2 67.3 9
2002-08-28 07:59:45 51°20.841 3°3.036 70.5 12.2 67.1 9.1
2002-08-28 07:59:50 51°20.848 3°3.061 70 12.3 66.8 9
2002-08-28 07:59:55 51°20.854 3°3.086 71.2 12.2 67.5 8.9
2002-08-28 08:00:01 51°20.862 3°3.116 69.7 12.2 67.7 8.8
2002-08-28 08:00:05 51°20.867 3°3.136 68.8 12.2 67 8.7
2002-08-28 08:00:10 51°20.875 3°3.16 68.8 12.2 65.1 8.6
2002-08-28 08:00:16 51°20.883 3°3.19 68.8 12.3 65.6 8.8
2002-08-28 08:00:20 51°20.89 3°3.209 68 12.3 64 8.9
2002-08-28 08:00:26 51°20.899 3°3.239 68 12.3 64.5 9.1
2002-08-28 08:00:31 51°20.906 3°3.264 68 12.2 64.1 9.1
2002-08-28 08:00:35 51°20.912 3°3.284 68.5 12.3 65 9.2
2002-08-28 08:00:41 51°20.921 3°3.313 67.3 12.3 63.4 9.2
2002-08-28 08:00:46 51°20.928 3°3.337 69 12.2 64.9 9.1
2002-08-28 08:00:51 51°20.936 3°3.362 67.3 12.3 63.8 9.1
2002-08-28 08:00:55 51°20.942 3°3.381 68.3 12.3 64.2 9.1
2002-08-28 08:01:01 51°20.951 3°3.411 68 12.3 63.7 9
2002-08-28 08:01:05 51°20.957 3°3.431 67.8 12.3 64 9.1
2002-08-28 08:01:11 51°20.966 3°3.46 67 12.3 63.7 9
2002-08-28 08:01:16 51°20.973 3°3.485 67.5 12.3 63.8 9.1
2002-08-28 08:01:21 51°20.981 3°3.509 67.5 12.3 63.7 9
2002-08-28 08:01:26 51°20.989 3°3.533 66.3 12.4 62.7 8.9
2002-08-28 08:01:30 51°20.994 3°3.554 68.3 12.4 64.4 9
2002-08-28 08:01:36 51°21.004 3°3.582 66.7 12.4 62.8 9
2002-08-28 08:01:41 51°21.011 3°3.606 67.8 12.3 64.1 9.1
2002-08-28 08:01:46 51°21.019 3°3.631 66.8 12.4 63.3 9
2002-08-28 08:01:50 51°21.025 3°3.651 67.3 12.4 63.7 9
2002-08-28 08:01:56 51°21.034 3°3.68 67.7 12.3 63.7 9.1
2002-08-28 08:02:01 51°21.042 3°3.704 67.3 12.3 64.2 9.1
2002-08-28 08:02:06 51°21.05 3°3.729 66.8 12.4 63.4 9.1
2002-08-28 08:02:10 51°21.055 3°3.749 67.7 12.3 64.1 9
2002-08-28 08:02:16 51°21.064 3°3.778 67.7 12.3 64.2 9
2002-08-28 08:02:21 51°21.072 3°3.803 68.2 12.3 64.6 9.1
2002-08-28 08:02:25 51°21.078 3°3.822 67.3 12.4 63.7 9.2
2002-08-28 08:02:30 51°21.085 3°3.847 68.3 12.3 63.9 9.2
2002-08-28 08:02:36 51°21.095 3°3.876 67.5 12.3 63.4 9.2
2002-08-28 08:02:41 51°21.102 3°3.9 67.2 12.3 63.1 9.3
2002-08-28 08:02:46 51°21.11 3°3.925 67.3 12.3 63.5 9.2
2002-08-28 08:02:50 51°21.116 3°3.944 66.7 12.3 63 9.4
2002-08-28 08:02:54 51°21.122 3°3.964 67.5 12.3 63.4 9.4
2002-08-28 08:03:01 51°21.133 3°3.998 66.8 12.3 63.2 9.3
2002-08-28 08:03:06 51°21.14 3°4.023 68.3 12.3 64.2 9.4
2002-08-28 08:03:10 51°21.146 3°4.042 68.3 12.3 64.8 9.1
2002-08-28 08:03:14 51°21.152 3°4.062 68.2 12.3 64.5 9.3
2002-08-28 08:03:21 51°21.162 3°4.096 68.5 12.2 65.7 9.3
2002-08-28 08:03:26 51°21.17 3°4.121 68.2 12.3 64.6 9.2
2002-08-28 08:03:30 51°21.175 3°4.14 68.7 12.3 64.7 9.2
2002-08-28 08:03:36 51°21.183 3°4.17 69.2 12.3 64.7 9.3
2002-08-28 08:03:41 51°21.191 3°4.194 68 12.2 64.9 9.3
2002-08-28 08:03:46 51°21.198 3°4.219 68.3 12.3 64.6 9.2
2002-08-28 08:03:51 51°21.205 3°4.243 68.8 12.3 64.9 9.3
2002-08-28 08:03:56 51°21.212 3°4.268 68.8 12.3 65.4 9.4
2002-08-28 08:04:01 51°21.219 3°4.293 69 12.3 66 9.3
2002-08-28 08:04:06 51°21.227 3°4.317 68.2 12.3 64.9 9.4
2002-08-28 08:04:11 51°21.233 3°4.342 69.3 12.3 66.1 9.5
2002-08-28 08:04:16 51°21.241 3°4.366 68.5 12.3 64.9 9.5
2002-08-28 08:04:21 51°21.248 3°4.391 68.7 12.3 65.3 9.6
2002-08-28 08:04:26 51°21.255 3°4.416 67.5 12.3 64.3 9.7
2002-08-28 08:04:30 51°21.261 3°4.435 69 12.3 65.2 9.8
2002-08-28 08:04:36 51°21.27 3°4.465 68.2 12.3 64.7 9.8
2002-08-28 08:04:41 51°21.277 3°4.49 68.2 12.4 65.1 9.8
2002-08-28 08:04:46 51°21.284 3°4.515 69 12.4 65.2 9.8
2002-08-28 08:04:50 51°21.29 3°4.535 69.2 12.3 65.5 9.7
2002-08-28 08:04:56 51°21.299 3°4.564 67.5 12.4 64.7 9.7
2002-08-28 08:05:00 51°21.305 3°4.584 67.3 12.3 64.3 9.8
2002-08-28 08:05:06 51°21.314 3°4.613 67.2 12.3 63.4 9.9
2002-08-28 08:05:11 51°21.321 3°4.638 68.5 12.3 64.3 9.9
2002-08-28 08:05:16 51°21.33 3°4.662 66.8 12.4 63.4 9.8
2002-08-28 08:05:21 51°21.337 3°4.686 67.8 12.3 64 10
2002-08-28 08:05:26 51°21.344 3°4.711 68.5 12.3 64.5 10
2002-08-28 08:05:30 51°21.35 3°4.73 68.2 12.3 64.6 9.9
2002-08-28 08:05:36 51°21.358 3°4.76 69.3 12.3 65.5 9.9
2002-08-28 08:05:41 51°21.366 3°4.785 68 12.3 65 9.6
2002-08-28 08:05:46 51°21.372 3°4.81 69.7 12.3 66.3 9.8
2002-08-28 08:05:50 51°21.378 3°4.83 69 12.3 65.4 9.8
2002-08-28 08:05:56 51°21.386 3°4.86 69.5 12.3 65.7 9.8
2002-08-28 08:06:01 51°21.394 3°4.884 67.7 12.3 64.4 9.8
2002-08-28 08:06:06 51°21.401 3°4.909 69.2 12.2 65.4 9.7
2002-08-28 08:06:10 51°21.407 3°4.928 67 12.3 63.6 9.6
2002-08-28 08:06:15 51°21.415 3°4.952 66.7 12.2 63.2 9.8
2002-08-28 08:06:21 51°21.424 3°4.98 66.5 12.2 63 9.8
2002-08-28 08:06:26 51°21.431 3°5.005 66.8 12.2 63.8 9.9
2002-08-28 08:06:30 51°21.438 3°5.024 66.8 12.2 63.4 9.8
2002-08-28 08:06:36 51°21.446 3°5.054 68.5 12.2 64.8 9.8
2002-08-28 08:06:41 51°21.454 3°5.078 67.2 12.2 63.8 10.1
2002-08-28 08:06:46 51°21.46 3°5.103 69 12.2 65.3 10.2
2002-08-28 08:06:50 51°21.467 3°5.122 67.7 12.2 64.1 10.3
2002-08-28 08:06:55 51°21.473 3°5.147 68.7 12.2 65.5 10.2
2002-08-28 08:07:01 51°21.483 3°5.176 67.7 12.2 64.2 10.1
2002-08-28 08:07:06 51°21.489 3°5.201 68.7 12.2 65.4 10.1
2002-08-28 08:07:10 51°21.496 3°5.22 67.7 12.3 63.9 10
2002-08-28 08:07:16 51°21.505 3°5.249 67.5 12.2 63.5 10
2002-08-28 08:07:21 51°21.512 3°5.273 68 12.2 63.6 10.1
2002-08-28 08:07:26 51°21.52 3°5.297 66.3 12.2 63.3 10
2002-08-28 08:07:30 51°21.526 3°5.317 67.5 12.2 63.5 9.6
2002-08-28 08:07:36 51°21.535 3°5.346 68.2 12.2 63.9 10
2002-08-28 08:07:41 51°21.542 3°5.37 67.3 12.2 64.1 10
2002-08-28 08:07:46 51°21.549 3°5.394 67.8 12.2 64.4 10
2002-08-28 08:07:50 51°21.555 3°5.414 68.5 12.2 64.9 10
2002-08-28 08:07:56 51°21.564 3°5.444 68.3 12.2 64.9 10.1
2002-08-28 08:08:01 51°21.571 3°5.468 68.8 12.2 65.3 10.1
2002-08-28 08:08:06 51°21.577 3°5.493 70.2 12.2 66.5 10.1
2002-08-28 08:08:11 51°21.583 3°5.518 69.7 12.2 66.8 10.1
2002-08-28 08:08:16 51°21.59 3°5.543 70.7 12.2 67.2 10
2002-08-28 08:08:21 51°21.597 3°5.568 70.2 12.2 66.6 10.1
2002-08-28 08:08:25 51°21.602 3°5.588 71.2 12.3 67.7 10.2
2002-08-28 08:08:30 51°21.609 3°5.613 70.2 12.2 66.9 10.1
2002-08-28 08:08:36 51°21.616 3°5.643 70.7 12.1 68 10.1
2002-08-28 08:08:41 51°21.623 3°5.667 70.7 12.2 67.9 10.2
2002-08-28 08:08:45 51°21.628 3°5.688 71.8 12.2 68.3 9.9
2002-08-28 08:08:51 51°21.636 3°5.718 70.8 12.3 67.5 10.1
2002-08-28 08:08:56 51°21.641 3°5.743 72.2 12.2 68.2 10.2
2002-08-28 08:09:01 51°21.648 3°5.768 70 12.2 67.6 10.2
2002-08-28 08:09:06 51°21.654 3°5.793 71.5 12.1 68.4 10.2
2002-08-28 08:09:10 51°21.66 3°5.813 70.8 12.2 67.6 10.2
2002-08-28 08:09:16 51°21.667 3°5.843 71 12.2 68 10.2
2002-08-28 08:09:21 51°21.674 3°5.868 70.5 12.2 67.5 10.3
2002-08-28 08:09:26 51°21.68 3°5.893 71.3 12.1 67.9 10.3
2002-08-28 08:09:30 51°21.685 3°5.913 70.8 12.2 67.9 10.1
2002-08-28 08:09:36 51°21.693 3°5.943 71.8 12.2 68.3 10.3
2002-08-28 08:09:41 51°21.699 3°5.968 71.2 12.2 68.2 10.3
2002-08-28 08:09:46 51°21.705 3°5.994 72 12.3 69.4 10.3
2002-08-28 08:09:50 51°21.71 3°6.014 71.7 12.2 68.4 10.2
2002-08-28 08:09:56 51°21.717 3°6.044 71.7 12.2 69.2 10.4
2002-08-28 08:10:01 51°21.723 3°6.069 71.8 12.2 68.5 10.4
2002-08-28 08:10:06 51°21.73 3°6.094 71.8 12.2 68.5 10.4
2002-08-28 08:10:10 51°21.735 3°6.114 70.8 12.3 67.8 10.4
2002-08-28 08:10:16 51°21.742 3°6.145 73.2 12.2 69.4 10.5
2002-08-28 08:10:21 51°21.747 3°6.171 74.7 12.2 71.6 10.5
2002-08-28 08:10:26 51°21.753 3°6.197 75.3 12.3 72 10.5
2002-08-28 08:10:31 51°21.756 3°6.223 76.5 12.2 74.1 10.6
2002-08-28 08:10:36 51°21.761 3°6.249 78.7 12.1 75.3 10.5
2002-08-28 08:10:41 51°21.765 3°6.275 77.5 12.2 75.9 10.4
2002-08-28 08:10:46 51°21.769 3°6.301 77.5 12.2 74.4 10.5
2002-08-28 08:10:50 51°21.771 3°6.322 79 12.1 76.9 10.5
2002-08-28 08:10:56 51°21.778 3°6.353 77.2 12.1 74.2 10.6
2002-08-28 08:11:01 51°21.78 3°6.379 79.8 12 77.7 10.6
2002-08-28 08:11:06 51°21.785 3°6.406 79.2 12.1 77.1 10.6
2002-08-28 08:11:10 51°21.788 3°6.427 79 12.2 76.6 10.7
2002-08-28 08:11:16 51°21.792 3°6.458 79.8 12.1 77.4 10.7
2002-08-28 08:11:21 51°21.796 3°6.484 79.2 12.1 76.1 10.7
2002-08-28 08:11:25 51°21.799 3°6.505 78.2 12.1 75.4 10.6
2002-08-28 08:11:30 51°21.804 3°6.531 77.5 12.2 74.9 10.6
2002-08-28 08:11:36 51°21.81 3°6.562 77.2 12.1 74.5 10.6
2002-08-28 08:11:41 51°21.815 3°6.588 76 12.1 73.7 10.6
2002-08-28 08:11:45 51°21.819 3°6.609 76.7 12.2 73.6 10.5
2002-08-28 08:11:50 51°21.823 3°6.635 77 12.2 73.7 10.6
2002-08-28 08:11:55 51°21.828 3°6.66 76.8 12.2 73.5 10.6
2002-08-28 08:12:01 51°21.834 3°6.691 77.3 12.1 73.7 10.6
2002-08-28 08:12:05 51°21.837 3°6.712 77.7 12.1 74.5 10.7
2002-08-28 08:12:11 51°21.843 3°6.743 78.2 12.1 74.1 10.7
2002-08-28 08:12:16 51°21.848 3°6.769 77.2 12.2 73.8 10.7
2002-08-28 08:12:21 51°21.852 3°6.795 77 12.2 73.5 10.7
2002-08-28 08:12:26 51°21.856 3°6.82 77.8 12.1 74.4 10.6
2002-08-28 08:12:31 51°21.861 3°6.846 78.8 12.1 74.9 10.6
2002-08-28 08:12:35 51°21.865 3°6.867 76.5 12.2 74.4 10.7
2002-08-28 08:12:41 51°21.87 3°6.898 76.5 12.2 73.4 10.7
2002-08-28 08:12:46 51°21.875 3°6.924 77 12.2 73.4 10.8
2002-08-28 08:12:51 51°21.879 3°6.95 77.5 12.2 74.9 10.7
2002-08-28 08:12:55 51°21.884 3°6.97 75.2 12.2 72.8 10.7
2002-08-28 08:13:01 51°21.888 3°7.002 78.7 12.1 75.6 10.8
2002-08-28 08:13:06 51°21.895 3°7.027 75.7 12.2 73.4 10.8
2002-08-28 08:13:11 51°21.897 3°7.054 79 12.2 76.1 10.8
2002-08-28 08:13:16 51°21.903 3°7.079 77.7 12.2 74.8 10.7
2002-08-28 08:13:21 51°21.906 3°7.106 78 12.1 76.2 10.7
2002-08-28 08:13:26 51°21.91 3°7.132 79 12.1 76.5 10.7
2002-08-28 08:13:31 51°21.914 3°7.158 79.7 12.1 77.2 10.8
2002-08-28 08:13:36 51°21.917 3°7.185 79.8 12.2 77.5 10.8
2002-08-28 08:13:41 51°21.921 3°7.211 79 12.3 76.9 10.8
2002-08-28 08:13:46 51°21.925 3°7.237 78.8 12.3 76.5 10.8
2002-08-28 08:13:51 51°21.929 3°7.264 79.7 12.2 77 10.8
2002-08-28 08:13:56 51°21.932 3°7.291 78.8 12.3 76.8 10.7
2002-08-28 08:14:01 51°21.937 3°7.317 77.7 12.3 75.8 10.9
2002-08-28 08:14:06 51°21.94 3°7.344 79.2 12.3 77 10.9
2002-08-28 08:14:11 51°21.945 3°7.37 78.8 12.3 76.4 11
2002-08-28 08:14:15 51°21.947 3°7.392 79.7 12.3 77.8 11.1
2002-08-28 08:14:18 51°21.95 3°7.408 78.5 12.3 76.5 10.9
2002-08-28 08:14:26 51°21.955 3°7.451 80.5 12.3 77.9 10.9
2002-08-28 08:14:30 51°21.958 3°7.472 80 12.4 78.6 11
2002-08-28 08:14:35 51°21.962 3°7.498 79.2 12.4 77.8 11
2002-08-28 08:14:41 51°21.967 3°7.53 79.7 12.3 77.5 11.1
2002-08-28 08:14:46 51°21.969 3°7.556 79.2 12.2 78.4 11
2002-08-28 08:14:51 51°21.972 3°7.583 80.8 12.2 79.4 10.9
2002-08-28 08:14:55 51°21.976 3°7.604 78.5 12.2 78.1 11
2002-08-28 08:15:01 51°21.979 3°7.636 80 12.2 78.5 11.1
2002-08-28 08:15:06 51°21.984 3°7.662 79.7 12.1 77.5 11.1
2002-08-28 08:15:11 51°21.986 3°7.688 80.2 12.2 78.8 11.2
2002-08-28 08:15:15 51°21.99 3°7.709 79.2 12.2 77.6 11.2
2002-08-28 08:15:21 51°21.993 3°7.741 80.2 12.2 78.5 11
2002-08-28 08:15:26 51°21.997 3°7.767 79.2 12.2 77.6 11
2002-08-28 08:15:31 51°22.001 3°7.794 79 12.3 78 11
2002-08-28 08:15:36 51°22.005 3°7.82 77.8 12.2 76.9 11
2002-08-28 08:15:41 51°22.007 3°7.847 80 12.1 78.7 11
2002-08-28 08:15:46 51°22.012 3°7.873 78.7 12.2 77.7 11
2002-08-28 08:15:51 51°22.015 3°7.9 78.7 12.3 78.2 10.8
2002-08-28 08:15:56 51°22.019 3°7.926 79.3 12.2 77.3 10.9
2002-08-28 08:16:01 51°22.021 3°7.953 80.5 12.2 79.5 10.8
2002-08-28 08:16:06 51°22.026 3°7.979 77.8 12.2 77.5 10.8
2002-08-28 08:16:11 51°22.028 3°8.006 80.2 12.1 79 10.9
2002-08-28 08:16:16 51°22.032 3°8.032 79.7 12.1 78.5 10.9
2002-08-28 08:16:21 51°22.035 3°8.058 80.2 12.1 79.4 10.9
2002-08-28 08:16:26 51°22.039 3°8.084 79.2 12 78 10.9
2002-08-28 08:16:31 51°22.041 3°8.11 79.5 12 79.1 11
2002-08-28 08:16:35 51°22.046 3°8.131 77.7 12 76.7 10.9
2002-08-28 08:16:41 51°22.049 3°8.163 78.8 12.1 78 11.1
2002-08-28 08:16:46 51°22.053 3°8.188 77.5 12 76 10.9
2002-08-28 08:16:51 51°22.056 3°8.214 78.7 11.9 77.6 11.1
2002-08-28 08:16:56 51°22.06 3°8.239 78.3 11.9 77.1 11.1
2002-08-28 08:17:02 51°22.064 3°8.271 79.7 11.9 78.8 11.2
2002-08-28 08:17:06 51°22.068 3°8.291 76.3 12 75.9 11.1
2002-08-28 08:17:11 51°22.071 3°8.317 77.7 11.9 76.8 11.2
2002-08-28 08:17:16 51°22.075 3°8.342 78.7 11.9 76.9 11.1
2002-08-28 08:17:22 51°22.079 3°8.373 78.3 11.8 77 10.9
2002-08-28 08:17:26 51°22.082 3°8.393 79.2 11.8 78.4 11.1
2002-08-28 08:17:31 51°22.085 3°8.419 79.5 11.9 78.5 11.3
2002-08-28 08:17:36 51°22.088 3°8.445 79 11.9 79.1 11.4
2002-08-28 08:17:41 51°22.091 3°8.47 79.2 11.8 78.7 11.3
2002-08-28 08:17:46 51°22.094 3°8.496 79.8 11.8 79.4 11.3
2002-08-28 08:17:51 51°22.097 3°8.521 80.5 11.6 79.9 11.2
2002-08-28 08:17:56 51°22.099 3°8.545 79.5 11.3 80.1 11.4
2002-08-28 08:18:01 51°22.102 3°8.568 80.8 10.8 80.7 11.4
2002-08-28 08:18:06 51°22.104 3°8.59 80.7 10.5 80.8 11.3
2002-08-28 08:18:11 51°22.106 3°8.611 79.5 10 80.5 11.4
2002-08-28 08:18:15 51°22.107 3°8.628 80.7 9.6 81.8 11.4
2002-08-28 08:18:21 51°22.11 3°8.652 79.2 9.3 80.7 11.5
2002-08-28 08:18:26 51°22.111 3°8.672 81.3 9.1 81.9 11.4
2002-08-28 08:18:31 51°22.112 3°8.692 85.2 8.9 86.4 11.4
2002-08-28 08:18:36 51°22.11 3°8.711 90.7 8.7 92.7 11.5
2002-08-28 08:18:41 51°22.109 3°8.73 92.2 8.7 95.5 11.5
2002-08-28 08:18:46 51°22.107 3°8.749 92.7 8.7 97.3 11.5
2002-08-28 08:18:51 51°22.106 3°8.768 93 8.6 96.9 11.5
2002-08-28 08:18:56 51°22.104 3°8.786 92.2 8.5 96.9 11.5
2002-08-28 08:19:01 51°22.103 3°8.805 92.2 8.4 96.3 11.5
2002-08-28 08:19:06 51°22.102 3°8.823 91.7 8.4 96.1 11.6
2002-08-28 08:19:11 51°22.101 3°8.841 91 8.3 95.8 11.5
2002-08-28 08:19:16 51°22.1 3°8.859 89.7 8.2 94.7 11.6
2002-08-28 08:19:20 51°22.099 3°8.874 89.7 8.2 94.3 11.6
2002-08-28 08:19:26 51°22.098 3°8.895 90 8.1 93.4 11.5
2002-08-28 08:19:31 51°22.098 3°8.913 90 8.1 94 11.7
2002-08-28 08:19:35 51°22.097 3°8.928 90.8 8.1 94.6 11.7
2002-08-28 08:19:41 51°22.096 3°8.949 90.7 8 94.3 11.7
2002-08-28 08:19:46 51°22.096 3°8.967 88.7 8 93.2 11.8
2002-08-28 08:19:51 51°22.096 3°8.984 87.8 8 91 11.8
2002-08-28 08:19:56 51°22.096 3°9.002 87.5 8 90.7 11.8
2002-08-28 08:20:01 51°22.095 3°9.019 87.8 8 90.8 11.8
2002-08-28 08:20:06 51°22.096 3°9.037 87 7.9 89.9 11.7
2002-08-28 08:20:11 51°22.096 3°9.055 86.7 8 89.7 11.8
2002-08-28 08:20:15 51°22.096 3°9.069 86.3 8 89 11.7
2002-08-28 08:20:21 51°22.096 3°9.09 86.2 8 88.9 11.8
2002-08-28 08:20:26 51°22.097 3°9.108 84.8 8 87.4 11.9
2002-08-28 08:20:31 51°22.097 3°9.126 85.8 8 88.2 11.8
2002-08-28 08:20:35 51°22.098 3°9.139 85.3 7.9 87.3 11.8
2002-08-28 08:20:38 51°22.098 3°9.15 85 7.9 87.8 11.8
2002-08-28 08:20:46 51°22.098 3°9.178 87 8 89.5 11.9
2002-08-28 08:20:51 51°22.097 3°9.196 89.2 7.9 91.5 11.9
2002-08-28 08:20:56 51°22.096 3°9.214 91.8 8 94.3 11.9
2002-08-28 08:21:01 51°22.095 3°9.232 91.5 8.1 95.1 12
2002-08-28 08:21:06 51°22.094 3°9.251 92 8.3 95.7 12
2002-08-28 08:21:11 51°22.094 3°9.271 88.3 8.9 91.3 12
2002-08-28 08:21:15 51°22.094 3°9.288 87 9.5 89.2 12
2002-08-28 08:21:21 51°22.095 3°9.315 88 9.9 88.7 11.9
2002-08-28 08:21:26 51°22.095 3°9.339 88.2 10.3 89.3 11.9
2002-08-28 08:21:31 51°22.096 3°9.362 86.5 10.6 87.1 12
2002-08-28 08:21:34 51°22.096 3°9.377 85.8 10.9 87.2 12
2002-08-28 08:21:41 51°22.099 3°9.411 82.7 11.1 82.9 12.1
2002-08-28 08:21:47 51°22.101 3°9.441 83.5 11.2 83 12.1
2002-08-28 08:21:51 51°22.103 3°9.461 85 11.3 84 12.2
2002-08-28 08:21:55 51°22.104 3°9.481 84 11.4 83.9 12.3
2002-08-28 08:21:59 51°22.106 3°9.501 82.2 11.5 82.4 12.2
2002-08-28 08:22:06 51°22.11 3°9.537 80.5 11.6 80.1 12.3
2002-08-28 08:22:11 51°22.113 3°9.562 80 11.7 79.3 12.3
2002-08-28 08:22:15 51°22.116 3°9.583 79.2 11.7 79.1 12.3
2002-08-28 08:22:21 51°22.121 3°9.612 75.8 11.6 75.1 12.3
2002-08-28 08:22:26 51°22.125 3°9.637 77.3 11.6 74.8 12.3
2002-08-28 08:22:31 51°22.131 3°9.661 74.5 11.7 72.5 12.4
2002-08-28 08:22:36 51°22.136 3°9.686 74.2 11.8 71.9 12.5
2002-08-28 08:22:41 51°22.142 3°9.71 71.8 11.8 69.5 12.6
2002-08-28 08:22:46 51°22.147 3°9.735 73 11.8 69.9 12.6
2002-08-28 08:22:51 51°22.153 3°9.759 72.8 11.7 69.9 12.6
2002-08-28 08:22:56 51°22.157 3°9.784 73.8 11.7 71.1 12.7
2002-08-28 08:23:01 51°22.164 3°9.808 70.7 11.8 68.6 12.7
2002-08-28 08:23:06 51°22.168 3°9.833 73.7 11.7 70.3 12.7
2002-08-28 08:23:11 51°22.175 3°9.856 72.2 11.6 70.4 12.7
2002-08-28 08:23:16 51°22.179 3°9.881 73.8 11.5 70.8 12.8
2002-08-28 08:23:21 51°22.185 3°9.905 74 11.6 71.7 12.8
2002-08-28 08:23:26 51°22.19 3°9.93 73.2 11.6 70.7 12.9
2002-08-28 08:23:31 51°22.196 3°9.954 73.3 11.6 70.5 12.9
2002-08-28 08:23:35 51°22.199 3°9.973 73.7 11.6 70.6 12.9
2002-08-28 08:23:41 51°22.205 3°10.003 74 11.7 72 13
2002-08-28 08:23:46 51°22.211 3°10.028 74 11.7 71.5 13
2002-08-28 08:23:51 51°22.216 3°10.052 74.5 11.7 72.1 13.1
2002-08-28 08:23:55 51°22.22 3°10.072 74 11.7 71.6 13.3
2002-08-28 08:23:58 51°22.223 3°10.086 75 11.7 72.4 13.3
2002-08-28 08:24:06 51°22.231 3°10.126 73.7 11.8 71.4 13.3
2002-08-28 08:24:11 51°22.236 3°10.151 75.2 11.7 72.8 13.4
2002-08-28 08:24:15 51°22.239 3°10.171 76.5 11.7 73.2 13.4
2002-08-28 08:24:21 51°22.245 3°10.201 75.7 11.8 73.7 13.4
2002-08-28 08:24:26 51°22.25 3°10.226 74.7 11.8 71.2 13.5
2002-08-28 08:24:31 51°22.255 3°10.251 75.3 11.8 72.6 13.5
2002-08-28 08:24:36 51°22.259 3°10.276 76.2 11.8 73.4 13.7
2002-08-28 08:24:41 51°22.264 3°10.301 76.2 11.8 73.4 13.8
2002-08-28 08:24:46 51°22.269 3°10.326 76.3 11.7 73.5 13.7
2002-08-28 08:24:51 51°22.273 3°10.351 77 11.8 73.8 14.1
2002-08-28 08:24:56 51°22.278 3°10.377 75.8 12 73.2 14.3
2002-08-28 08:25:01 51°22.283 3°10.402 76 11.9 72.9 14.5
2002-08-28 08:25:06 51°22.288 3°10.426 75.8 11.8 72.9 14.8
2002-08-28 08:25:11 51°22.292 3°10.452 76.5 11.9 74 15.6
2002-08-28 08:25:15 51°22.296 3°10.473 76.3 12 73.6 17
2002-08-28 08:25:21 51°22.302 3°10.503 76.7 11.9 73 16.9
2002-08-28 08:25:26 51°22.307 3°10.528 75.7 12 72.9 16.6
2002-08-28 08:25:31 51°22.313 3°10.553 74.3 11.9 70.4 17.1
2002-08-28 08:25:35 51°22.316 3°10.573 77 11.8 72.4 17
2002-08-28 08:25:41 51°22.323 3°10.603 74.8 11.9 71.9 16.8
2002-08-28 08:25:46 51°22.327 3°10.628 76.2 11.9 72.1 16.9
2002-08-28 08:25:51 51°22.333 3°10.653 75.8 11.8 73.4 17.1
2002-08-28 08:25:56 51°22.337 3°10.678 76.2 11.8 73.1 17.1
2002-08-28 08:25:59 51°22.341 3°10.693 75.3 11.8 71.5 17.2
2002-08-28 08:26:06 51°22.347 3°10.728 75.5 11.8 72.7 17.2
2002-08-28 08:26:11 51°22.353 3°10.752 75.2 11.8 70.9 16
2002-08-28 08:26:17 51°22.358 3°10.783 77 11.7 73.6 15.6
2002-08-28 08:26:22 51°22.363 3°10.806 75 11.6 71.3 15.5
2002-08-28 08:26:26 51°22.366 3°10.827 75.8 11.6 73.7 15.4
2002-08-28 08:26:31 51°22.372 3°10.851 75.5 11.6 72 15.1
2002-08-28 08:26:35 51°22.375 3°10.871 76.8 11.6 73.2 15
2002-08-28 08:26:41 51°22.381 3°10.9 76 11.6 72.9 15
2002-08-28 08:26:46 51°22.384 3°10.925 78.2 11.5 74.6 14.8
2002-08-28 08:26:51 51°22.391 3°10.949 75.2 11.7 72.3 14.7
2002-08-28 08:26:55 51°22.392 3°10.969 77.8 11.6 74.9 14.7
2002-08-28 08:27:01 51°22.398 3°10.999 78.3 11.5 75.1 14.7
2002-08-28 08:27:06 51°22.402 3°11.023 77.2 11.6 74.4 14.6
2002-08-28 08:27:11 51°22.406 3°11.048 77.8 11.6 75.8 14.6
2002-08-28 08:27:15 51°22.409 3°11.068 79.7 11.5 76.2 14.7
2002-08-28 08:27:21 51°22.412 3°11.099 80.8 11.6 78.4 14.8
2002-08-28 08:27:26 51°22.417 3°11.123 78.7 11.7 76.4 14.7
2002-08-28 08:27:31 51°22.419 3°11.149 81.5 11.6 79.1 14.7
2002-08-28 08:27:37 51°22.425 3°11.179 78.5 11.7 75.8 14.8
2002-08-28 08:27:41 51°22.427 3°11.199 78.8 11.7 76.6 14.8
2002-08-28 08:27:46 51°22.431 3°11.224 78.7 11.7 75.6 14.8
2002-08-28 08:27:51 51°22.436 3°11.249 79.2 11.7 76 14.8
2002-08-28 08:27:56 51°22.439 3°11.275 79.3 11.7 77.3 14.8
2002-08-28 08:28:01 51°22.443 3°11.3 79.2 11.8 76 15
2002-08-28 08:28:06 51°22.446 3°11.325 79.7 11.8 77 15.2
2002-08-28 08:28:10 51°22.449 3°11.346 80.3 11.8 77.3 14.9
2002-08-28 08:28:15 51°22.454 3°11.371 79.7 11.8 76.5 14.6
2002-08-28 08:28:21 51°22.458 3°11.402 78.8 11.9 76.1 14.6
2002-08-28 08:28:26 51°22.462 3°11.427 79.2 11.9 76.2 14.6
2002-08-28 08:28:31 51°22.466 3°11.452 79.7 11.6 75.5 14.6
2002-08-28 08:28:36 51°22.47 3°11.477 79 11.5 76.1 14.5
2002-08-28 08:28:41 51°22.475 3°11.502 77.5 11.7 74.1 14.4
2002-08-28 08:28:46 51°22.478 3°11.527 79.5 11.6 75.6 14.4
2002-08-28 08:28:51 51°22.482 3°11.551 77.8 11.6 75.5 14.4
2002-08-28 08:28:56 51°22.485 3°11.577 80.2 11.5 76.1 14.3
2002-08-28 08:29:02 51°22.49 3°11.607 80.3 11.7 76.7 14.3
2002-08-28 08:29:06 51°22.493 3°11.628 81 11.8 78.4 14.3
2002-08-28 08:29:11 51°22.496 3°11.653 80.8 11.7 77.6 14.3
2002-08-28 08:29:17 51°22.5 3°11.683 81.7 11.7 78.7 14.3
2002-08-28 08:29:21 51°22.503 3°11.703 80.5 11.7 77.7 14.2
2002-08-28 08:29:26 51°22.505 3°11.729 81.2 11.8 79.1 14
2002-08-28 08:29:30 51°22.509 3°11.749 79.7 11.8 77.1 14
2002-08-28 08:29:34 51°22.511 3°11.77 83.3 11.6 80 14
2002-08-28 08:29:42 51°22.516 3°11.81 80.3 11.7 78.6 13.8
2002-08-28 08:29:46 51°22.518 3°11.83 80.2 11.6 78.1 13.8
2002-08-28 08:29:51 51°22.521 3°11.856 82 11.6 79.2 13.7
2002-08-28 08:29:56 51°22.525 3°11.881 81.7 11.6 79 13.8
2002-08-28 08:30:01 51°22.527 3°11.907 82.3 11.7 79.9 13.8
2002-08-28 08:30:06 51°22.53 3°11.932 81.7 11.8 79.4 13.8
2002-08-28 08:30:11 51°22.533 3°11.958 81.7 11.8 79.1 13.7
2002-08-28 08:30:16 51°22.537 3°11.983 81.2 11.7 78.6 13.6
2002-08-28 08:30:21 51°22.539 3°12.009 81.7 11.8 79.5 13.5
2002-08-28 08:30:27 51°22.544 3°12.039 80.3 11.7 77.5 13.5
2002-08-28 08:30:31 51°22.546 3°12.06 81 11.7 78.9 13.5